Regional Weather Roundup
Issued by NWS

Home | Current Version | Previous Version | Text Only | Print | Product List | Glossary On
Versions: 1 2 3 4 5 6 7 8 9 10 11 12 13 14 15 16 17 18 19 20 21 22 23 24 25 26 27 28 29 30 31 32 33 34 35 36 37 38 39 40 41 42 43 44 45 46 47 48 49 50
000
ASUS43 KMPX 010701
RWRMN
WEATHER ROUNDUP FOR MINNESOTA
NATIONAL WEATHER SERVICE TWIN CITIES/CHANHASSEN MN
200 AM CDT WED OCT 01 2014


NOTE: "FAIR" INDICATES FEW OR NO CLOUDS BELOW 12,000 FEET WITH NO
SIGNIFICANT WEATHER AND/OR OBSTRUCTIONS TO VISIBILITY. N/A MEANS
CURRENT SKY AND/OR WEATHER CONDITIONS ARE NOT AVAILABLE.

MNZ060>063-068>070-010800-
   Twin Cities Metro

CITY           SKY/WX    TMP DP  RH WIND       PRES   REMARKS
TWIN CITIES    MOCLDY    51  45  79 SE12      29.87F
ST PAUL        MOCLDY    51  45  79 SE14G20   29.90R
CRYSTAL        MOCLDY    53  45  74 SE15G21   29.85S
BLAINE         MOCLDY    54  46  76 SE14G20   29.87S
LAKEVILLE      MOCLDY    50  45  81 SE9       29.87F
EDEN PRAIRIE   CLOUDY    53  47  79 SE14      29.84F
SOUTH ST PAUL  MOCLDY    51  45  78 SE8       29.89S
LAKE ELMO      MOCLDY    50  45  81 SE10      29.91R
$$
MNZ001>005-007-008-013>017-022>024-027-028-010800-
   Northwest Minnesota

CITY           SKY/WX    TMP DP  RH WIND       PRES   REMARKS
BEMIDJI        MOCLDY    49  45  85 SE15G22   29.73S
HALLOCK        CLOUDY    59  52  77 SE26      29.52F
ROSEAU         CLOUDY    55  48  76 SE16G24   29.64F
WARROAD        MOCLDY    52  46  82 SE12G20   29.67F
THIEF RVR FALL CLOUDY    57  48  72 SE22G30   29.60F
CROOKSTON      CLOUDY    61  52  72 S29G38    29.56F
FOSSTON        CLOUDY    55  48  76 SE17G23   29.64F
DETROIT LAKES  CLOUDY    54  50  87 SE21G26   29.68S
PARK RAPIDS    MOCLDY    50  45  83 SE16      29.75R
MAHNOMEN       CLOUDY    56  49  77 SE20G25   29.63F
$$
MNZ006-009>011-018-025>026-010800-
   North Central Minnesota

CITY           SKY/WX    TMP DP  RH WIND       PRES   REMARKS
BAUDETTE       CLOUDY    49  42  77 SE10G21   29.72F
FLAG ISLAND    CLOUDY    52  45  76 SE21      29.69F
INTL FALLS     CLOUDY    46  41  82 SE14      29.80F
WASKISH        MOCLDY    50  45  81 SE13G23   29.72F
BIG FORK       CLOUDY    48  43  81 SE10      29.81S
LONGVILLE      PTCLDY    46  45  93 SE7       29.79S
GRAND RAPIDS   MOCLDY    46  41  81 SE14G22   29.82S
CRANE LAKE     CLOUDY    43  41  93 CALM      29.88F
ORR            CLOUDY    45  39  81 SE8       29.82F
COOK           CLOUDY    46  43  87 E5        29.86F
WALKER         FAIR      49  45  84 SE8       29.76S
$$
MNZ012-019>021-037-010800-
   Northeast Minnesota

CITY           SKY/WX    TMP DP  RH WIND       PRES   REMARKS
DULUTH         CLOUDY    48  45  89 SE13      29.91R
ELY            MOCLDY    43  41  93 E9        29.89F
HIBBING        CLOUDY    48  43  82 SE10      29.87F
EVELETH        CLOUDY    45  43  93 SE5       29.89S
DULUTH HARBOR  CLOUDY    52  48  87 E9        29.92R
TWO HARBORS    CLOUDY    46  43  87 E8        29.90F
SILVER BAY     CLOUDY    45  45 100 NE8       29.92F
GRAND MARAIS     N/A     47  43  86 NE7       29.98F
G MARAIS ARPRT FOG       39  37  93 E6        29.96F VSB 1/4
$$
MNZ029>031-032-039>041-046>048-054>057-064-010800-
   West Central Minnesota

CITY           SKY/WX    TMP DP  RH WIND       PRES   REMARKS
FERGUS FALLS   CLOUDY    61  54  77 S21G29    29.67F
WHEATON        CLEAR     57  55  94 SE15      29.67S
MORRIS         CLEAR     61  57  88 SE15G21   29.70F
ALEXANDRIA     CLOUDY    55  52  89 SE12      29.76R
ELBOW LAKE     CLOUDY    58  56  90 S22G30    29.69S
WADENA         CLOUDY    52  46  82 SE15      29.74R
GLENWOOD       MOCLDY    57  55  94 SE16G23   29.76S
APPLETON       CLOUDY    63  57  82 S10       29.71F
BENSON         CLOUDY    59  55  88 S13G21    29.74S
ORTONVILLE     CLEAR     59  55  88 SE9       29.69S
MADISON        PTCLDY    66  61  82 S8G16     29.70F
WILLMAR        MOCLDY    57  54  88 SE13      29.78S
$$
MNZ033>034-036-042>043-049>051-058-059-010800-
   Central Minnesota

CITY           SKY/WX    TMP DP  RH WIND       PRES   REMARKS
ST CLOUD       PTCLDY    53  47  79 SE10      29.81F
SAUK CENTRE    CLOUDY    53  49  87 SE10      29.78S
PAYNESVILLE    PTCLDY    52  49  92 E14       29.79S
AITKIN         MIX PCPN  52  45  76 SE12G17   29.82R
PINE RIVER     PTCLDY    52  46  82 SE14      29.82S
BRAINERD       PTCLDY    49  44  83 SE10G20   29.81S
STAPLES        CLOUDY    50  45  81 SE10      29.77S
LONG PRAIRIE   CLOUDY    52  46  82 SE10      29.78S
LITTLE FALLS   PTCLDY    50  45  81 SE8       29.80R
LITCHFIELD     CLEAR     55  52  88 SE10G17   29.81S
BUFFALO        PTCLDY    52  46  80 E10       29.84S
MAPLE LAKE     PTCLDY    54  49  85 SE8       29.83F
$$
MNZ037-044-045-052-053-010800-
   East Central Minnesota

CITY           SKY/WX    TMP DP  RH WIND       PRES   REMARKS
PRINCETON      MOCLDY    52  46  82 SE8       29.85S
MORA           MOCLDY    48  43  81 SE7       29.87F
CAMBRIDGE      CLOUDY    54  43  66 SE8       29.85S
RUSH CITY      CLOUDY    49  44  81 SE9G16    29.88F
MOOSE LAKE     MOCLDY    45  43  93 E5        29.87R
HINCKLEY       PTSUNNY   50  45  81 SE6       29.89S
CLOQUET        CLOUDY    46  45  93 SE9       29.89F
$$
MNZ071>073-080-081-089-090-097-098-010800-
   Southwest Minnesota

CITY           SKY/WX    TMP DP  RH WIND       PRES   REMARKS
MONTEVIDEO     CLOUDY    61  59  94 S6        29.75R
GRANITE FALLS  CLOUDY    59  56  92 SE13      29.76S
CANBY          PTCLDY    63  58  85 S12G17    29.71F
MARSHALL       CLOUDY    63  55  77 S15       29.73F
REDWOOD FALLS  CLOUDY    59  56  89 S12       29.77S
OLIVIA         CLOUDY    57  54  88 SE9       29.77S
PIPESTONE      CLOUDY    61  59  94 S12       29.75F
WINDOM         CLOUDY    61  57  88 S10G18    29.79R
WORTHINGTON    CLOUDY    61  57  88 S14G20    29.78F
JACKSON        CLOUDY    59  55  88 S10       29.79S
TRACY          CLOUDY    62  59  91 S14       29.76S
SLAYTON        CLOUDY    59  59  97 S10       29.79R FOG
$$
MNZ065>067-074>077-082>085-091>093-010800-
   South Central Minnesota

CITY           SKY/WX    TMP DP  RH WIND       PRES   REMARKS
MANKATO        PTCLDY    54  45  71 SE15      29.82F
NEW ULM        CLEAR     54  52  94 SE12      29.80S
ST JAMES       MOCLDY    57  55  94 SE6       29.81S
FAIRMONT       CLOUDY    57  52  82 SE12G20   29.80S
GLENCOE        CLEAR     55  47  76 SE9       29.82S
FARIBAULT      CLOUDY    52  46  82 SE10      29.87F
OWATONNA       CLOUDY    52  45  76 SE12G21   29.86F
WASECA         MOCLDY    50  43  76 SE10G17   29.86F
ALBERT LEA     CLOUDY    54  46  76 SE13      29.86S
$$
MNZ078>079-086>088-094>096-010800-
   Southeast Minnesota

CITY           SKY/WX    TMP DP  RH WIND       PRES   REMARKS
ROCHESTER      CLOUDY    47  43  86 SE16      29.91F
RED WING       MOCLDY    52  45  76 SE15      29.90F
STANTON        CLOUDY    52  45  77 SE8       29.86F
DODGE CENTER   CLOUDY    48  45  87 SE17      29.88F
WINONA         CLOUDY    48  45  87 SE6       29.97R
AUSTIN         CLOUDY    50  45  81 SE10G20   29.88F
PRESTON        CLOUDY    47  43  85 SE10G17   29.93F
$$
ABBREVIATIONS USED IN REMARKS
   TC - TEMPERATURES IN CELSIUS
  WCI - WIND CHILL INDEX
   HX - HEAT INDEX
  VSB - VISIBILITY
$$


USA.gov is the U.S. government's official web portal to all federal, state and local government web resources and services.